RYR248P EDNY-LEPA

Flight info

Callsign RYR248P
Flight time 1h 54m
Altitude 37000
Route BEMKI1W BEMKI L607 XEBIX Y740 NATAG DCT LORLO DCT ATPED DCT PIDAD DCT TALEP DCT RARQU DCT BALEN/N0443F290 UT250 RIXOT
Aircraft A320/M-SDE3FGHIRWY/LB1

Departure

Time 2026-05-06 13:17
Airport Bodensee Airport Friedrichshafen (EDNY)

Arrival

Time 2026-05-06 15:11
Airport Palma de Mallorca Airport (LEPA)
Time Latitude Longitude Altitude Speed Heading
2026-05-06 13:10 47.67341 9.52160 1365 ft 0 kts 60°
2026-05-06 13:10 47.67342 9.52161 1365 ft 1 kts 60°
2026-05-06 13:11 47.67349 9.52180 1365 ft 3 kts 60°
2026-05-06 13:11 47.67361 9.52211 1365 ft 5 kts 60°
2026-05-06 13:11 47.67380 9.52262 1367 ft 7 kts 60°
2026-05-06 13:11 47.67404 9.52324 1368 ft 7 kts 60°
2026-05-06 13:12 47.67430 9.52390 1368 ft 8 kts 60°
2026-05-06 13:12 47.67465 9.52481 1369 ft 11 kts 60°
2026-05-06 13:12 47.67507 9.52588 1369 ft 12 kts 56°
2026-05-06 13:12 47.67544 9.52593 1375 ft 0 kts 338°
2026-05-06 13:13 47.67543 9.52593 1375 ft 0 kts 338°
2026-05-06 13:13 47.67549 9.52590 1374 ft 3 kts 336°
2026-05-06 13:13 47.67596 9.52551 1376 ft 11 kts 330°
2026-05-06 13:14 47.67651 9.52495 1375 ft 3 kts 298°
2026-05-06 13:14 47.67647 9.52477 1373 ft 0 kts 241°
2026-05-06 13:16 47.67622 9.52411 1375 ft 30 kts 241°
2026-05-06 13:16 47.67397 9.51829 1374 ft 98 kts 240°
2026-05-06 13:16 47.66965 9.50711 1377 ft 150 kts 240°
2026-05-06 13:16 47.66394 9.49254 1729 ft 165 kts 239°
2026-05-06 13:17 47.65804 9.47841 2588 ft 158 kts 240°
2026-05-06 13:17 47.65201 9.46430 3058 ft 174 kts 240°
2026-05-06 13:17 47.64555 9.44793 3446 ft 192 kts 243°
2026-05-06 13:17 47.63812 9.43080 4034 ft 204 kts 226°
2026-05-06 13:18 47.62499 9.42236 4732 ft 218 kts 184°
2026-05-06 13:18 47.60917 9.42673 5136 ft 251 kts 158°
2026-05-06 13:18 47.59575 9.44542 5615 ft 285 kts 122°
2026-05-06 13:18 47.58976 9.47411 6352 ft 298 kts 102°
2026-05-06 13:19 47.58777 9.50479 7185 ft 301 kts 94°
2026-05-06 13:19 47.58743 9.53566 8114 ft 301 kts 93°
2026-05-06 13:19 47.58745 9.56679 8920 ft 304 kts 94°
2026-05-06 13:19 47.58724 9.59815 9778 ft 304 kts 96°
2026-05-06 13:20 47.58666 9.62999 10211 ft 320 kts 94°
2026-05-06 13:20 47.58554 9.66405 10396 ft 341 kts 98°
2026-05-06 13:20 47.57951 9.69790 10978 ft 340 kts 120°
2026-05-06 13:20 47.56639 9.72651 11650 ft 335 kts 139°
2026-05-06 13:21 47.54866 9.74865 12321 ft 334 kts 146°
2026-05-06 13:21 47.53023 9.77002 13011 ft 338 kts 147°
2026-05-06 13:21 47.51156 9.79134 13761 ft 342 kts 147°
2026-05-06 13:21 47.49265 9.81286 14468 ft 345 kts 147°
2026-05-06 13:22 47.47355 9.83464 15147 ft 349 kts 147°
2026-05-06 13:22 47.45425 9.85666 15781 ft 352 kts 147°
2026-05-06 13:22 47.43479 9.87888 16353 ft 355 kts 147°
2026-05-06 13:22 47.41517 9.90133 16942 ft 358 kts 146°
2026-05-06 13:23 47.39537 9.92398 17504 ft 362 kts 146°
2026-05-06 13:23 47.37541 9.94681 18121 ft 365 kts 146°
2026-05-06 13:23 47.35522 9.96988 18658 ft 369 kts 146°
2026-05-06 13:23 47.33482 9.99315 19183 ft 373 kts 147°
2026-05-06 13:24 47.31424 10.01661 19747 ft 375 kts 147°
2026-05-06 13:24 47.29377 10.03993 20261 ft 379 kts 147°
2026-05-06 13:24 47.27280 10.06378 20756 ft 382 kts 147°
2026-05-06 13:24 47.25166 10.08777 21289 ft 384 kts 147°
2026-05-06 13:25 47.23041 10.11186 21763 ft 387 kts 147°
2026-05-06 13:25 47.20899 10.13612 22225 ft 390 kts 148°
2026-05-06 13:25 47.18738 10.16058 22748 ft 394 kts 148°
2026-05-06 13:25 47.16561 10.18524 23264 ft 397 kts 148°
2026-05-06 13:26 47.14366 10.21005 23671 ft 400 kts 148°
2026-05-06 13:26 47.12153 10.23503 24093 ft 402 kts 149°
2026-05-06 13:26 47.09929 10.26011 24502 ft 404 kts 149°
2026-05-06 13:26 47.07694 10.28526 24961 ft 406 kts 149°
2026-05-06 13:27 47.05452 10.31044 25334 ft 408 kts 149°
2026-05-06 13:27 47.03193 10.33579 25663 ft 410 kts 150°
2026-05-06 13:27 47.00923 10.36124 26045 ft 412 kts 150°
2026-05-06 13:27 46.98644 10.38677 26427 ft 413 kts 150°
2026-05-06 13:28 46.96351 10.41244 26829 ft 416 kts 150°
2026-05-06 13:28 46.94047 10.43825 27135 ft 418 kts 150°
2026-05-06 13:28 46.91728 10.46419 27448 ft 420 kts 150°
2026-05-06 13:28 46.89401 10.49019 27815 ft 421 kts 151°
2026-05-06 13:29 46.87069 10.51621 28113 ft 422 kts 151°
2026-05-06 13:29 46.84724 10.54228 28480 ft 425 kts 151°
2026-05-06 13:29 46.82368 10.56844 28814 ft 426 kts 151°
2026-05-06 13:29 46.80000 10.59470 29179 ft 428 kts 152°
2026-05-06 13:30 46.77609 10.62053 29525 ft 425 kts 155°
2026-05-06 13:30 46.75034 10.64028 29909 ft 412 kts 167°
2026-05-06 13:30 46.72331 10.65204 30363 ft 400 kts 177°
2026-05-06 13:30 46.69604 10.65610 30800 ft 389 kts 186°
2026-05-06 13:31 46.66937 10.65301 31235 ft 380 kts 195°
2026-05-06 13:31 46.64398 10.64366 31719 ft 374 kts 201°
2026-05-06 13:31 46.61943 10.63283 32183 ft 373 kts 201°
2026-05-06 13:31 46.59433 10.62181 32590 ft 371 kts 201°
2026-05-06 13:32 46.56993 10.61113 32930 ft 371 kts 201°
2026-05-06 13:32 46.54529 10.60033 33382 ft 369 kts 201°
2026-05-06 13:32 46.52073 10.58956 33870 ft 368 kts 201°
2026-05-06 13:32 46.49629 10.57885 34160 ft 367 kts 201°
2026-05-06 13:33 46.47180 10.56817 34398 ft 368 kts 201°
2026-05-06 13:33 46.44730 10.55751 34679 ft 368 kts 200°
2026-05-06 13:33 46.42278 10.54684 34929 ft 370 kts 200°
2026-05-06 13:33 46.39805 10.53602 35167 ft 371 kts 201°
2026-05-06 13:34 46.37330 10.52519 35395 ft 373 kts 200°
2026-05-06 13:34 46.34836 10.51432 35624 ft 375 kts 200°
2026-05-06 13:34 46.32330 10.50344 35872 ft 377 kts 200°
2026-05-06 13:34 46.29810 10.49252 36109 ft 378 kts 200°
2026-05-06 13:35 46.27281 10.48158 36285 ft 380 kts 200°
2026-05-06 13:35 46.24740 10.47060 36511 ft 382 kts 200°
2026-05-06 13:35 46.22189 10.45956 36687 ft 384 kts 200°
2026-05-06 13:35 46.19625 10.44844 36853 ft 386 kts 200°
2026-05-06 13:36 46.17041 10.43725 36906 ft 390 kts 200°
2026-05-06 13:36 46.12047 10.40628 36899 ft 393 kts 208°
2026-05-06 13:37 46.07147 10.37132 36902 ft 392 kts 209°
2026-05-06 13:37 46.02265 10.33650 36889 ft 391 kts 208°
2026-05-06 13:38 45.97393 10.30189 36906 ft 390 kts 208°
2026-05-06 13:38 45.92554 10.26767 36895 ft 390 kts 208°
2026-05-06 13:39 45.87685 10.23333 36882 ft 389 kts 209°
2026-05-06 13:39 45.82832 10.19902 36891 ft 389 kts 209°
2026-05-06 13:40 45.77975 10.16469 36895 ft 389 kts 209°
2026-05-06 13:40 45.73127 10.13049 36898 ft 388 kts 209°
2026-05-06 13:41 45.68279 10.09650 36878 ft 387 kts 208°
2026-05-06 13:41 45.63446 10.06271 36881 ft 387 kts 208°
2026-05-06 13:42 45.58617 10.02893 36886 ft 386 kts 208°
2026-05-06 13:42 45.53790 9.99523 36883 ft 386 kts 208°
2026-05-06 13:43 45.48964 9.96166 36865 ft 386 kts 208°
2026-05-06 13:43 45.44142 9.92818 36867 ft 385 kts 208°
2026-05-06 13:44 45.39323 9.89475 36866 ft 385 kts 208°
2026-05-06 13:44 45.34503 9.86136 36832 ft 385 kts 208°
2026-05-06 13:45 45.29679 9.82790 36830 ft 386 kts 208°
2026-05-06 13:45 45.22457 9.77797 36832 ft 387 kts 208°
2026-05-06 13:46 45.17608 9.74470 36831 ft 387 kts 208°
2026-05-06 13:46 45.12758 9.71136 36819 ft 388 kts 208°
2026-05-06 13:47 45.07890 9.67803 36823 ft 389 kts 208°
2026-05-06 13:47 45.03011 9.64466 36831 ft 390 kts 208°
2026-05-06 13:48 44.98133 9.61128 36845 ft 390 kts 208°
2026-05-06 13:48 44.93259 9.57809 36850 ft 389 kts 208°
2026-05-06 13:49 44.88385 9.54495 36869 ft 389 kts 208°
2026-05-06 13:49 44.83499 9.51186 36856 ft 389 kts 208°
2026-05-06 13:50 44.78628 9.47885 36823 ft 389 kts 208°
2026-05-06 13:50 44.73750 9.44583 36847 ft 390 kts 208°
2026-05-06 13:51 44.68854 9.41282 36857 ft 390 kts 208°
2026-05-06 13:51 44.63957 9.37983 36866 ft 390 kts 208°
2026-05-06 13:52 44.59057 9.34683 36856 ft 391 kts 208°
2026-05-06 13:52 44.54980 9.31942 36859 ft 392 kts 208°
2026-05-06 13:53 44.50068 9.28642 36869 ft 392 kts 208°
2026-05-06 13:53 44.45139 9.25346 36875 ft 393 kts 208°
2026-05-06 13:54 44.40197 9.22059 36880 ft 393 kts 208°
2026-05-06 13:54 44.35267 9.18773 36885 ft 393 kts 208°
2026-05-06 13:55 44.30323 9.15478 36893 ft 393 kts 208°
2026-05-06 13:55 44.25382 9.12198 36891 ft 393 kts 208°
2026-05-06 13:56 44.20442 9.08926 36933 ft 393 kts 208°
2026-05-06 13:56 44.15533 9.05677 36893 ft 390 kts 208°
2026-05-06 13:57 44.10636 9.02443 36896 ft 389 kts 208°
2026-05-06 13:57 44.05738 8.99212 36880 ft 389 kts 208°
2026-05-06 13:58 44.00846 8.95992 36893 ft 389 kts 208°
2026-05-06 13:58 43.95951 8.92781 36887 ft 389 kts 208°
2026-05-06 13:59 43.91095 8.89597 36890 ft 389 kts 208°
2026-05-06 13:59 43.86201 8.86396 36870 ft 389 kts 208°
2026-05-06 14:00 43.81303 8.83198 36883 ft 389 kts 208°
2026-05-06 14:00 43.76411 8.80006 36892 ft 389 kts 208°
2026-05-06 14:01 43.71524 8.76825 36893 ft 389 kts 208°
2026-05-06 14:01 43.66625 8.73645 36868 ft 389 kts 208°
2026-05-06 14:02 43.61453 8.71371 36892 ft 397 kts 192°
2026-05-06 14:02 43.55868 8.71223 36896 ft 403 kts 186°
2026-05-06 14:03 43.50526 8.69892 36892 ft 385 kts 212°
2026-05-06 14:03 43.45949 8.66072 36879 ft 386 kts 213°
2026-05-06 14:04 43.41353 8.62237 36883 ft 387 kts 213°
2026-05-06 14:04 43.36746 8.58392 36888 ft 388 kts 213°
2026-05-06 14:05 43.32252 8.54330 36894 ft 386 kts 220°
2026-05-06 14:05 43.28233 8.49441 36886 ft 386 kts 224°
2026-05-06 14:06 43.24360 8.44337 36900 ft 386 kts 224°
2026-05-06 14:06 43.20416 8.39330 36908 ft 386 kts 223°
2026-05-06 14:07 43.16408 8.34418 36919 ft 387 kts 223°
2026-05-06 14:07 43.12380 8.29533 36921 ft 387 kts 223°
2026-05-06 14:08 43.08387 8.24670 36924 ft 387 kts 223°
2026-05-06 14:08 43.04371 8.19767 36929 ft 387 kts 223°
2026-05-06 14:09 43.00350 8.14873 36927 ft 387 kts 223°
2026-05-06 14:09 42.96325 8.09986 36934 ft 387 kts 223°
2026-05-06 14:10 42.92294 8.05119 36927 ft 387 kts 223°
2026-05-06 14:10 42.88267 8.00243 36937 ft 387 kts 223°
2026-05-06 14:11 42.84237 7.95370 36963 ft 387 kts 223°
2026-05-06 14:11 42.80206 7.90507 36958 ft 387 kts 223°
2026-05-06 14:12 42.76171 7.85660 36951 ft 387 kts 223°
2026-05-06 14:12 42.72135 7.80821 36935 ft 387 kts 223°
2026-05-06 14:13 42.68099 7.75983 36942 ft 387 kts 223°
2026-05-06 14:13 42.64057 7.71156 36943 ft 387 kts 223°
2026-05-06 14:14 42.60015 7.66329 36950 ft 387 kts 223°
2026-05-06 14:14 42.55975 7.61512 36952 ft 387 kts 223°
2026-05-06 14:15 42.51929 7.56696 36982 ft 387 kts 223°
2026-05-06 14:15 42.47881 7.51874 36972 ft 387 kts 223°
2026-05-06 14:16 42.43833 7.47066 36968 ft 387 kts 223°
2026-05-06 14:16 42.39777 7.42269 36965 ft 387 kts 223°
2026-05-06 14:17 42.35720 7.37482 36936 ft 387 kts 223°
2026-05-06 14:17 42.31663 7.32696 36948 ft 387 kts 223°
2026-05-06 14:18 42.27634 7.27949 36957 ft 387 kts 223°
2026-05-06 14:18 42.23569 7.23179 36962 ft 387 kts 222°
2026-05-06 14:19 42.19505 7.18411 36970 ft 387 kts 223°
2026-05-06 14:19 42.15441 7.13647 36959 ft 387 kts 222°
2026-05-06 14:20 42.11371 7.08889 36962 ft 387 kts 222°
2026-05-06 14:20 42.07298 7.04137 36968 ft 387 kts 222°
2026-05-06 14:21 42.03224 6.99397 36971 ft 387 kts 222°
2026-05-06 14:21 41.99182 6.94607 36972 ft 387 kts 224°
2026-05-06 14:22 41.95224 6.89702 36955 ft 387 kts 224°
2026-05-06 14:22 41.91269 6.84792 36963 ft 387 kts 224°
2026-05-06 14:23 41.87294 6.79905 36991 ft 387 kts 224°
2026-05-06 14:23 41.83305 6.75044 36986 ft 387 kts 224°
2026-05-06 14:24 41.79339 6.70220 36982 ft 387 kts 224°
2026-05-06 14:24 41.75348 6.65368 36962 ft 388 kts 224°
2026-05-06 14:25 41.71349 6.60524 36971 ft 388 kts 224°
2026-05-06 14:25 41.67355 6.55671 36976 ft 388 kts 224°
2026-05-06 14:26 41.63367 6.50819 36973 ft 388 kts 224°
2026-05-06 14:26 41.59356 6.45982 36990 ft 388 kts 224°
2026-05-06 14:27 41.55340 6.41160 36986 ft 388 kts 224°
2026-05-06 14:27 41.51330 6.36332 36981 ft 388 kts 224°
2026-05-06 14:28 41.47318 6.31512 36984 ft 388 kts 224°
2026-05-06 14:28 41.43304 6.26693 36984 ft 388 kts 224°
2026-05-06 14:29 41.39287 6.21876 36941 ft 388 kts 224°
2026-05-06 14:29 41.35265 6.17072 36957 ft 389 kts 224°
2026-05-06 14:30 41.31241 6.12265 36965 ft 389 kts 224°
2026-05-06 14:30 41.27208 6.07466 37002 ft 389 kts 224°
2026-05-06 14:31 41.23176 6.02671 36986 ft 389 kts 224°
2026-05-06 14:31 41.19149 5.97884 36946 ft 389 kts 224°
2026-05-06 14:32 41.15141 5.93139 36957 ft 389 kts 224°
2026-05-06 14:32 41.11090 5.88355 36976 ft 390 kts 224°
2026-05-06 14:33 41.07039 5.83569 36977 ft 390 kts 224°
2026-05-06 14:33 41.03005 5.78803 36983 ft 390 kts 224°
2026-05-06 14:34 40.98941 5.74025 36984 ft 391 kts 223°
2026-05-06 14:34 40.94925 5.69190 36987 ft 390 kts 229°
2026-05-06 14:35 40.91701 5.63456 36986 ft 388 kts 235°
2026-05-06 14:35 40.88585 5.57624 36985 ft 388 kts 235°
2026-05-06 14:36 40.85466 5.51800 36981 ft 388 kts 235°
2026-05-06 14:36 40.82361 5.46028 36982 ft 388 kts 235°
2026-05-06 14:37 40.79229 5.40227 36983 ft 388 kts 235°
2026-05-06 14:37 40.76093 5.34424 36956 ft 388 kts 235°
2026-05-06 14:38 40.72958 5.28617 36987 ft 389 kts 235°
2026-05-06 14:38 40.69823 5.22812 36987 ft 388 kts 235°
2026-05-06 14:39 40.66684 5.17022 36985 ft 388 kts 235°
2026-05-06 14:39 40.63539 5.11244 36986 ft 388 kts 235°
2026-05-06 14:40 40.60395 5.05474 36984 ft 388 kts 235°
2026-05-06 14:40 40.57258 4.99713 36983 ft 388 kts 235°
2026-05-06 14:41 40.54111 4.93952 36999 ft 387 kts 235°
2026-05-06 14:41 40.50969 4.88215 36978 ft 387 kts 235°
2026-05-06 14:42 40.47818 4.82479 36981 ft 387 kts 235°
2026-05-06 14:42 40.45199 4.77725 36975 ft 387 kts 235°
2026-05-06 14:43 40.42054 4.72001 36973 ft 386 kts 235°
2026-05-06 14:43 40.38914 4.66287 36976 ft 386 kts 235°
2026-05-06 14:44 40.35761 4.60582 36946 ft 386 kts 235°
2026-05-06 14:45 40.31021 4.52022 36974 ft 387 kts 235°
2026-05-06 14:45 40.27851 4.46313 36833 ft 388 kts 234°
2026-05-06 14:45 40.26261 4.43462 36568 ft 387 kts 234°
2026-05-06 14:46 40.24678 4.40621 36139 ft 385 kts 234°
2026-05-06 14:46 40.23105 4.37792 35530 ft 385 kts 235°
2026-05-06 14:46 40.21531 4.34959 34894 ft 385 kts 234°
2026-05-06 14:46 40.19951 4.32119 34227 ft 386 kts 234°
2026-05-06 14:47 40.18362 4.29269 33405 ft 389 kts 234°
2026-05-06 14:47 40.16788 4.26451 32822 ft 386 kts 234°
2026-05-06 14:47 40.15217 4.23648 32416 ft 380 kts 234°
2026-05-06 14:47 40.13661 4.20878 31933 ft 376 kts 234°
2026-05-06 14:48 40.12124 4.18140 31494 ft 371 kts 234°
2026-05-06 14:48 40.10606 4.15430 31028 ft 368 kts 234°
2026-05-06 14:48 40.09102 4.12746 30573 ft 364 kts 234°
2026-05-06 14:48 40.07614 4.10094 30126 ft 360 kts 234°
2026-05-06 14:49 40.06138 4.07472 29636 ft 357 kts 234°
2026-05-06 14:49 40.04679 4.04875 29197 ft 352 kts 234°
2026-05-06 14:49 40.03238 4.02311 28752 ft 348 kts 234°
2026-05-06 14:49 40.01808 3.99777 28305 ft 345 kts 234°
2026-05-06 14:50 40.00389 3.97264 27891 ft 343 kts 234°
2026-05-06 14:50 39.98982 3.94770 27463 ft 340 kts 234°
2026-05-06 14:50 39.97582 3.92291 27052 ft 339 kts 234°
2026-05-06 14:50 39.96190 3.89825 26613 ft 337 kts 234°
2026-05-06 14:51 39.94804 3.87366 26232 ft 335 kts 234°
2026-05-06 14:51 39.93426 3.84927 25842 ft 333 kts 234°
2026-05-06 14:51 39.92053 3.82501 25445 ft 332 kts 234°
2026-05-06 14:51 39.90685 3.80092 25074 ft 330 kts 234°
2026-05-06 14:52 39.89323 3.77699 24678 ft 328 kts 234°
2026-05-06 14:52 39.87974 3.75323 24304 ft 325 kts 234°
2026-05-06 14:52 39.86635 3.72959 23936 ft 323 kts 234°
2026-05-06 14:52 39.85308 3.70620 23578 ft 320 kts 234°
2026-05-06 14:53 39.83991 3.68305 23167 ft 317 kts 234°
2026-05-06 14:53 39.82686 3.66013 22801 ft 315 kts 234°
2026-05-06 14:53 39.81382 3.63728 22436 ft 314 kts 234°
2026-05-06 14:53 39.80080 3.61454 22065 ft 313 kts 234°
2026-05-06 14:54 39.78785 3.59190 21690 ft 311 kts 234°
2026-05-06 14:54 39.77495 3.56935 21312 ft 310 kts 234°
2026-05-06 14:54 39.76212 3.54690 20924 ft 309 kts 234°
2026-05-06 14:54 39.74933 3.52455 20520 ft 308 kts 234°
2026-05-06 14:55 39.73655 3.50225 20141 ft 307 kts 234°
2026-05-06 14:55 39.72380 3.48000 19752 ft 306 kts 234°
2026-05-06 14:55 39.71111 3.45783 19356 ft 305 kts 234°
2026-05-06 14:55 39.69873 3.43548 18935 ft 304 kts 238°
2026-05-06 14:56 39.68888 3.41160 18525 ft 304 kts 244°
2026-05-06 14:56 39.67938 3.38666 18080 ft 304 kts 244°
2026-05-06 14:56 39.67011 3.36251 17642 ft 303 kts 244°
2026-05-06 14:56 39.66070 3.33813 17227 ft 301 kts 244°
2026-05-06 14:57 39.65132 3.31388 16813 ft 300 kts 244°
2026-05-06 14:57 39.64199 3.28977 16414 ft 298 kts 244°
2026-05-06 14:57 39.63270 3.26572 15991 ft 298 kts 244°
2026-05-06 14:57 39.62345 3.24171 15576 ft 297 kts 244°
2026-05-06 14:58 39.61422 3.21780 15166 ft 296 kts 244°
2026-05-06 14:58 39.60498 3.19394 14768 ft 296 kts 244°
2026-05-06 14:58 39.59574 3.17011 14362 ft 296 kts 244°
2026-05-06 14:58 39.58651 3.14632 13961 ft 295 kts 244°
2026-05-06 14:59 39.57730 3.12254 13535 ft 295 kts 244°
2026-05-06 14:59 39.56813 3.09884 13136 ft 293 kts 244°
2026-05-06 14:59 39.55904 3.07535 12783 ft 290 kts 244°
2026-05-06 14:59 39.55001 3.05201 12398 ft 289 kts 244°
2026-05-06 15:00 39.54097 3.02879 12009 ft 288 kts 244°
2026-05-06 15:00 39.53194 3.00567 11623 ft 287 kts 244°
2026-05-06 15:00 39.52293 2.98259 11246 ft 287 kts 244°
2026-05-06 15:00 39.51395 2.95955 10862 ft 286 kts 244°
2026-05-06 15:01 39.50495 2.93653 10490 ft 286 kts 244°
2026-05-06 15:01 39.49592 2.91365 10204 ft 283 kts 243°
2026-05-06 15:01 39.48664 2.89145 9929 ft 279 kts 242°
2026-05-06 15:01 39.47732 2.86949 9579 ft 278 kts 242°
2026-05-06 15:02 39.46803 2.84761 9248 ft 277 kts 242°
2026-05-06 15:02 39.45878 2.82577 8912 ft 276 kts 242°
2026-05-06 15:02 39.44970 2.80429 8588 ft 275 kts 242°
2026-05-06 15:02 39.44053 2.78257 8254 ft 274 kts 242°
2026-05-06 15:03 39.43142 2.76091 7955 ft 274 kts 242°
2026-05-06 15:03 39.42233 2.73927 7671 ft 273 kts 242°
2026-05-06 15:03 39.41329 2.71773 7395 ft 272 kts 242°
2026-05-06 15:03 39.40420 2.69604 6993 ft 276 kts 242°
2026-05-06 15:04 39.39507 2.67415 6601 ft 277 kts 242°
2026-05-06 15:04 39.38612 2.65261 6250 ft 265 kts 242°
2026-05-06 15:04 39.37770 2.63225 6020 ft 249 kts 242°
2026-05-06 15:04 39.36964 2.61280 5638 ft 242 kts 242°
2026-05-06 15:05 39.36183 2.59381 5211 ft 236 kts 244°
2026-05-06 15:05 39.35814 2.57376 4791 ft 228 kts 275°
2026-05-06 15:05 39.36335 2.55486 4355 ft 228 kts 309°
2026-05-06 15:05 39.37547 2.54181 3997 ft 227 kts 329°
2026-05-06 15:06 39.38909 2.53171 3746 ft 224 kts 332°
2026-05-06 15:06 39.40252 2.52227 3497 ft 221 kts 335°
2026-05-06 15:06 39.41729 2.51830 3246 ft 214 kts
2026-05-06 15:06 39.43199 2.52084 3057 ft 213 kts 11°
2026-05-06 15:07 39.44653 2.52457 3007 ft 211 kts 17°
2026-05-06 15:07 39.45914 2.53240 3002 ft 200 kts 38°
2026-05-06 15:07 39.46856 2.54524 2896 ft 196 kts 58°
2026-05-06 15:07 39.47568 2.56018 2681 ft 195 kts 59°
2026-05-06 15:08 39.48274 2.57505 2431 ft 194 kts 59°
2026-05-06 15:08 39.48982 2.58994 2174 ft 194 kts 59°
2026-05-06 15:08 39.49684 2.60470 1950 ft 189 kts 59°
2026-05-06 15:08 39.50354 2.61880 1680 ft 178 kts 59°
2026-05-06 15:09 39.50978 2.63193 1437 ft 165 kts 59°
2026-05-06 15:09 39.51552 2.64401 1247 ft 151 kts 59°
2026-05-06 15:09 39.52085 2.65528 1000 ft 144 kts 59°
2026-05-06 15:09 39.52596 2.66610 803 ft 139 kts 59°
2026-05-06 15:10 39.53067 2.67585 676 ft 137 kts 58°
2026-05-06 15:10 39.53564 2.68630 505 ft 135 kts 59°
2026-05-06 15:10 39.54052 2.69663 305 ft 134 kts 58°
2026-05-06 15:10 39.54538 2.70691 142 ft 133 kts 58°
2026-05-06 15:11 39.55011 2.71690 40 ft 118 kts 58°
2026-05-06 15:11 39.55345 2.72403 38 ft 68 kts 58°
2026-05-06 15:11 39.55490 2.72763 38 ft 36 kts 80°
2026-05-06 15:11 39.55502 2.73068 38 ft 21 kts 89°
2026-05-06 15:12 39.55510 2.73193 38 ft 15 kts 69°
2026-05-06 15:12 39.55566 2.73316 38 ft 17 kts 58°
2026-05-06 15:12 39.55626 2.73444 37 ft 11 kts 60°
2026-05-06 15:12 39.55589 2.73525 38 ft 13 kts 150°
2026-05-06 15:13 39.55502 2.73591 38 ft 16 kts 148°
2026-05-06 15:13 39.55398 2.73672 38 ft 19 kts 149°
2026-05-06 15:13 39.55277 2.73768 37 ft 22 kts 148°
2026-05-06 15:13 39.55187 2.73818 38 ft 10 kts 204°
2026-05-06 15:14 39.55175 2.73735 38 ft 12 kts 288°
2026-05-06 15:14 39.55149 2.73632 38 ft 14 kts 236°
2026-05-06 15:14 39.55105 2.73566 38 ft 5 kts 182°
2026-05-06 15:14 39.55073 2.73577 38 ft 3 kts 164°
2026-05-06 15:15 39.55066 2.73579 35 ft 0 kts 163°